When you browse on this site, cookies collect data to enhance your experience and personalize the content and advertising you see.
Visit our Privacy Policy to learn more. By continuing to use the site, you agree to this use of cookies and data.
  • In Switzerland
  • List of Countries
  • For 7 days
  • Water Temperature
  • Weather Map
  • Weather Widgets
  • user-avatar
    Login

    Hourly Weather Kandahar

    Today, 14 October, Monday

    Time Temperature Precipitation Wind Pressure Humidity
    00:00 +19°C° 0 mm 1 mps 676 mmHg 24%
    01:00 +18°C° 0 mm 1 mps 676 mmHg 25%
    02:00 +16°C° 0 mm 1 mps 675 mmHg 26%
    03:00 +14°C° 0 mm 0 mps 675 mmHg 27%
    04:00 +14°C° 0 mm 0 mps 675 mmHg 29%
    05:00 +16°C° 0 mm 1 mps 676 mmHg 26%
    06:00 +19°C° 0 mm 1 mps 677 mmHg 23%
    07:00 +21°C° 0 mm 1 mps 678 mmHg 20%
    08:00 +23°C° 0 mm 1 mps 678 mmHg 17%
    09:00 +26°C° 0 mm 2 mps 679 mmHg 15%
    10:00 +28°C° 0 mm 3 mps 679 mmHg 12%
    11:00 +29°C° 0 mm 4 mps 679 mmHg 11%
    12:00 +32°C° 0 mm 5 mps 678 mmHg 9%
    13:00 +33°C° 0 mm 7 mps 678 mmHg 8%
    14:00 +32°C° 0 mm 7 mps 678 mmHg 9%
    15:00 +30°C° 0 mm 7 mps 677 mmHg 10%
    16:00 +29°C° 0 mm 7 mps 677 mmHg 11%
    17:00 +27°C° 0 mm 6 mps 677 mmHg 14%
    18:00 +23°C° 0 mm 5 mps 677 mmHg 17%
    19:00 +21°C° 0 mm 4 mps 677 mmHg 20%
    20:00 +19°C° 0 mm 3 mps 677 mmHg 23%
    21:00 +17°C° 0 mm 2 mps 676 mmHg 26%
    22:00 +16°C° 0 mm 1 mps 676 mmHg 29%
    23:00 +15°C° 0 mm 1 mps 676 mmHg 30%

    Tomorrow, 15 October, Tuesday

    Time Temperature Precipitation Wind Pressure Humidity
    00:00 +14°C° 0 mm 1 mps 676 mmHg 32%
    01:00 +14°C° 0 mm 1 mps 676 mmHg 34%
    02:00 +13°C° 0 mm 1 mps 676 mmHg 36%
    03:00 +12°C° 0 mm 1 mps 676 mmHg 38%
    04:00 +12°C° 0 mm 1 mps 676 mmHg 39%
    05:00 +13°C° 0 mm 1 mps 677 mmHg 36%
    06:00 +15°C° 0 mm 1 mps 677 mmHg 33%
    07:00 +18°C° 0 mm 1 mps 678 mmHg 30%
    08:00 +19°C° 0 mm 1 mps 679 mmHg 27%
    09:00 +21°C° 0 mm 1 mps 679 mmHg 24%
    10:00 +23°C° 0 mm 1 mps 679 mmHg 21%
    11:00 +25°C° 0 mm 1 mps 679 mmHg 19%
    12:00 +26°C° 0 mm 2 mps 679 mmHg 16%
    13:00 +28°C° 0 mm 2 mps 678 mmHg 14%
    14:00 +28°C° 0 mm 2 mps 678 mmHg 14%
    15:00 +28°C° 0 mm 3 mps 678 mmHg 13%
    16:00 +28°C° 0 mm 3 mps 678 mmHg 13%
    17:00 +25°C° 0 mm 3 mps 678 mmHg 16%
    18:00 +21°C° 0 mm 3 mps 677 mmHg 20%
    19:00 +18°C° 0 mm 2 mps 677 mmHg 24%
    20:00 +17°C° 0 mm 2 mps 677 mmHg 26%
    21:00 +17°C° 0 mm 2 mps 677 mmHg 28%
    22:00 +16°C° 0 mm 2 mps 677 mmHg 30%
    23:00 +15°C° 0 mm 1 mps 677 mmHg 32%

    Day after tomorrow, 16 October, Wednesday

    Time Temperature Precipitation Wind Pressure Humidity
    00:00 +14°C° 0 mm 1 mps 677 mmHg 34%
    01:00 +13°C° 0 mm 1 mps 676 mmHg 35%
    02:00 +13°C° 0 mm 1 mps 676 mmHg 37%
    03:00 +11°C° 0 mm 0 mps 676 mmHg 38%
    04:00 +10°C° 0 mm 0 mps 676 mmHg 40%
    05:00 +12°C° 0 mm 0 mps 677 mmHg 35%
    06:00 +14°C° 0 mm 0 mps 678 mmHg 31%
    07:00 +17°C° 0 mm 0 mps 678 mmHg 26%
    08:00 +19°C° 0 mm 0 mps 679 mmHg 24%
    09:00 +23°C° 0 mm 1 mps 679 mmHg 21%
    10:00 +25°C° 0 mm 1 mps 679 mmHg 18%
    11:00 +26°C° 0 mm 2 mps 679 mmHg 16%
    12:00 +28°C° 0 mm 2 mps 678 mmHg 15%
    13:00 +29°C° 0 mm 3 mps 678 mmHg 13%
    14:00 +29°C° 0 mm 3 mps 678 mmHg 13%
    15:00 +29°C° 0 mm 3 mps 678 mmHg 12%
    16:00 +29°C° 0 mm 3 mps 677 mmHg 12%
    17:00 +26°C° 0 mm 3 mps 677 mmHg 16%
    18:00 +22°C° 0 mm 3 mps 677 mmHg 19%
    19:00 +18°C° 0 mm 2 mps 676 mmHg 23%
    20:00 +17°C° 0 mm 2 mps 676 mmHg 25%
    21:00 +16°C° 0 mm 1 mps 676 mmHg 27%
    22:00 +15°C° 0 mm 1 mps 676 mmHg 29%
    23:00 +15°C° 0 mm 1 mps 676 mmHg 31%

    17 October, Thursday

    Time Temperature Precipitation Wind Pressure Humidity
    00:00 +14°C° 0 mm 1 mps 676 mmHg 32%
    01:00 +12°C° 0 mm 0 mps 675 mmHg 34%
    02:00 +12°C° 0 mm 0 mps 675 mmHg 35%
    03:00 +11°C° 0 mm 0 mps 675 mmHg 37%
    04:00 +11°C° 0 mm 0 mps 675 mmHg 38%
    05:00 +13°C° 0 mm 0 mps 676 mmHg 34%
    06:00 +15°C° 0 mm 0 mps 677 mmHg 30%
    07:00 +17°C° 0 mm 0 mps 678 mmHg 25%
    08:00 +21°C° 0 mm 1 mps 678 mmHg 23%
    09:00 +23°C° 0 mm 1 mps 678 mmHg 20%
    10:00 +25°C° 0 mm 1 mps 679 mmHg 17%
    11:00 +26°C° 0 mm 2 mps 678 mmHg 15%
    12:00 +27°C° 0 mm 3 mps 678 mmHg 13%
    13:00 +28°C° 0 mm 4 mps 677 mmHg 11%
    14:00 +28°C° 0 mm 4 mps 677 mmHg 11%
    15:00 +28°C° 0 mm 5 mps 677 mmHg 11%
    16:00 +28°C° 0 mm 5 mps 677 mmHg 10%
    17:00 +25°C° 0 mm 4 mps 676 mmHg 12%
    18:00 +21°C° 0 mm 3 mps 676 mmHg 15%
    19:00 +18°C° 0 mm 2 mps 676 mmHg 17%
    20:00 +17°C° 0 mm 2 mps 676 mmHg 19%
    21:00 +16°C° 0 mm 1 mps 676 mmHg 20%
    22:00 +15°C° 0 mm 1 mps 675 mmHg 22%
    23:00 +14°C° 0 mm 1 mps 675 mmHg 23%

    18 October, Friday

    Time Temperature Precipitation Wind Pressure Humidity
    00:00 +14°C° 0 mm 1 mps 675 mmHg 24%
    01:00 +12°C° 0 mm 0 mps 674 mmHg 25%
    02:00 +11°C° 0 mm 0 mps 674 mmHg 26%
    03:00 +11°C° 0 mm 0 mps 674 mmHg 27%
    04:00 +10°C° 0 mm 0 mps 674 mmHg 28%
    05:00 +12°C° 0 mm 0 mps 675 mmHg 25%
    06:00 +15°C° 0 mm 0 mps 676 mmHg 22%
    07:00 +19°C° 0 mm 1 mps 677 mmHg 19%
    08:00 +21°C° 0 mm 1 mps 677 mmHg 17%
    09:00 +23°C° 0 mm 1 mps 678 mmHg 14%
    10:00 +25°C° 0 mm 1 mps 678 mmHg 12%
    11:00 +26°C° 0 mm 1 mps 678 mmHg 11%
    12:00 +27°C° 0 mm 1 mps 677 mmHg 11%
    13:00 +28°C° 0 mm 1 mps 677 mmHg 10%
    14:00 +28°C° 0 mm 2 mps 677 mmHg 10%
    15:00 +28°C° 0 mm 2 mps 676 mmHg 11%
    16:00 +28°C° 0 mm 2 mps 676 mmHg 11%
    17:00 +25°C° 0 mm 2 mps 676 mmHg 14%
    18:00 +21°C° 0 mm 2 mps 676 mmHg 17%
    19:00 +18°C° 0 mm 2 mps 675 mmHg 20%
    20:00 +17°C° 0 mm 2 mps 675 mmHg 22%
    21:00 +16°C° 0 mm 1 mps 676 mmHg 24%
    22:00 +15°C° 0 mm 1 mps 676 mmHg 25%
    23:00 +15°C° 0 mm 1 mps 675 mmHg 26%

    19 October, Saturday

    Time Temperature Precipitation Wind Pressure Humidity
    00:00 +14°C° 0 mm 1 mps 675 mmHg 27%
    01:00 +14°C° 0 mm 1 mps 675 mmHg 28%
    02:00 +13°C° 0 mm 1 mps 675 mmHg 30%
    03:00 +12°C° 0 mm 0 mps 675 mmHg 31%
    04:00 +11°C° 0 mm 0 mps 675 mmHg 32%
    05:00 +13°C° 0 mm 0 mps 676 mmHg 28%
    06:00 +16°C° 0 mm 1 mps 677 mmHg 24%
    07:00 +20°C° 0 mm 1 mps 678 mmHg 20%
    08:00 +22°C° 0 mm 1 mps 678 mmHg 18%
    09:00 +22°C° 0 mm 0 mps 679 mmHg 15%
    10:00 +24°C° 0 mm 0 mps 679 mmHg 13%
    11:00 +27°C° 0 mm 1 mps 679 mmHg 12%
    12:00 +28°C° 0 mm 2 mps 679 mmHg 11%
    13:00 +29°C° 0 mm 2 mps 678 mmHg 10%
    14:00 +29°C° 0 mm 2 mps 678 mmHg 10%
    15:00 +29°C° 0 mm 2 mps 678 mmHg 9%
    16:00 +29°C° 0 mm 2 mps 677 mmHg 9%
    17:00 +26°C° 0 mm 2 mps 677 mmHg 11%
    18:00 +21°C° 0 mm 2 mps 677 mmHg 13%
    19:00 +18°C° 0 mm 2 mps 676 mmHg 15%
    20:00 +18°C° 0 mm 1 mps 676 mmHg 15%
    21:00 +18°C° 0 mm 1 mps 676 mmHg 16%
    22:00 +16°C° 0 mm 1 mps 676 mmHg 16%
    23:00 +15°C° 0 mm 1 mps 676 mmHg 16%
    Show more